Timestamp,Temp,Chill,HIndex,Humid,Dewpt,Wind,HiWind,WindDir,Rain,RainRate,Barom,Solar,ET,UV,InsideTemp,InsideHumid
2016-01-30 00:00:00,46.8,41.7209684553632,46.8,74,38.9566690386883,11,24,225,0,0,29.319,0,0.002,0,74.5,32
2016-01-30 00:05:00,46.8,41.397052052097,46.8,74,38.9566690386883,12,24,225,0,0,29.318,0,0,0,74.5,32
2016-01-30 00:10:00,46.8,42.0706416891469,46.8,74,38.9566690386883,10,20,225,0,0,29.317,0,0,0,74.5,32
2016-01-30 00:15:00,46.7,41.9466991389475,46.7,73,38.5124867837775,10,20,225,0,0,29.314,0,0,0,74.5,32
2016-01-30 00:20:00,46.7,41.5960763700851,46.7,73,38.5124867837775,11,23,225,0,0,29.316,0,0,0,74.5,32
2016-01-30 00:25:00,46.7,41.9466991389475,46.7,73,38.5124867837775,10,23,225,0,0,29.315,0,0,0,74.5,32
2016-01-30 00:30:00,46.7,41.5960763700851,46.7,72,38.1605639300787,11,22,225,0,0,29.317,0,0,0,74.5,32
2016-01-30 00:35:00,46.7,41.5960763700851,46.7,72,38.1605639300787,11,20,225,0,0,29.314,0,0,0,74.5,32
2016-01-30 00:40:00,46.7,42.3281228031072,46.7,72,38.1605639300787,9,20,225,0,0,29.316,0,0,0,74.5,32
2016-01-30 00:45:00,46.7,41.5960763700851,46.7,72,38.1605639300787,11,21,225,0,0,29.316,0,0,0,74.7,32
2016-01-30 00:50:00,46.7,41.5960763700851,46.7,72,38.1605639300787,11,29,225,0,0,29.316,0,0,0,74.5,32
2016-01-30 00:55:00,46.8,41.7209684553632,46.8,71,37.9003205641394,11,24,225,0,0,29.308,0,0,0,74.7,32
2016-01-30 01:00:00,46.9,42.1945842393463,46.9,71,37.996339549077,10,25,225,0,0,29.314,0,0.002,0,74.7,32
2016-01-30 01:05:00,46.9,41.5228237299711,46.9,70,37.6353002465347,12,36,225,0,0,29.314,0,0,0,74.7,32
2016-01-30 01:10:00,47,42.3185267895456,47,70,37.7311586026185,10,25,225,0,0,29.312,0,0,0,74.5,32
2016-01-30 01:15:00,47,42.3185267895456,47,70,37.7311586026185,10,21,225,0,0,29.311,0,0,0,74.5,32
2016-01-30 01:20:00,47,41.9707526259194,47,69,37.3653760645334,11,26,225,0,0,29.314,0,0,0,74.5,31
2016-01-30 01:25:00,47,41.9707526259194,47,70,37.7311586026185,11,23,225,0,0,29.311,0,0,0,74.5,31
2016-01-30 01:30:00,46.9,41.2216609774344,46.9,70,37.6353002465347,13,29,225,0,0,29.305,0,0,0,74.5,31
2016-01-30 01:35:00,46.9,41.5228237299711,46.9,70,37.6353002465347,12,28,225,0,0,29.304,0,0,0,74.5,31
2016-01-30 01:40:00,46.7,42.3281228031072,46.7,70,37.4435808161763,9,22,225,0,0,29.308,0,0,0,74.5,31
2016-01-30 01:45:00,46.6,41.1455086963486,46.6,70,37.3477197418761,12,26,225,0,0,29.305,0,0,0,74.3,31
2016-01-30 01:50:00,46.5,41.3462921995289,46.5,70,37.2518577614781,11,22,225,0,0,29.308,0,0,0,74.3,31
2016-01-30 01:55:00,46.5,40.7152941378708,46.5,71,37.6122583759974,13,29,225,0,0,29.309,0,0,0,74.3,31
2016-01-30 02:00:00,46.5,41.6988140385487,46.5,72,37.9682060068242,10,21,225,0,0,29.326,0,0.002,0,74.3,31
2016-01-30 02:05:00,45.7,40.0135635954812,45.7,73,37.5491049411026,12,24,247.5,0.00393700787,0,29.326,0,0,0,74.3,31
2016-01-30 02:10:00,44.6,38.9733425792449,44.6,75,37.1741294324319,11,24,225,0,0,29.329,0,0,0,74.3,31
2016-01-30 02:15:00,43.9,38.0990979822981,43.9,77,37.1643264245802,11,26,225,0,0,29.326,0,0,0,74.2,31
2016-01-30 02:20:00,43.3,37.7326524321683,43.3,78,36.909363470278,10,29,225,0,0,29.325,0,0,0,74.2,31
2016-01-30 02:25:00,42.9,36.4919566150048,42.9,78,36.5209151818388,12,27,247.5,0,0,29.326,0,0,0,74,31
2016-01-30 02:30:00,42.8,37.5346483241296,42.8,79,36.7462080842587,9,21,270,0,0,29.327,0,0,0,74,31
2016-01-30 02:35:00,42.8,38.5122996550377,42.8,80,37.0650313586751,7,16,292.5,0,0,29.334,0,0,0,73.8,31
2016-01-30 02:40:00,42.7,36.988997130972,42.7,80,36.967628742941,10,26,270,0,0,29.342,0,0,0,73.8,31
2016-01-30 02:45:00,42.5,37.1659195180544,42.5,80,36.772821769663,9,27,270,0,0,29.345,0,0,0,73.8,31
2016-01-30 02:50:00,42.1,36.6742811099542,42.1,79,36.065380676262,9,18,292.5,0,0,29.345,0,0,0,73.6,31
2016-01-30 02:55:00,41.8,36.7799858738216,41.8,79,35.7735883213503,8,21,292.5,0,0,29.345,0,0,0,73.6,31
2016-01-30 03:00:00,41.4,36.8250909426983,41.4,79,35.384523279705,7,14,315,0,0,29.343,0,0.001,0,73.5,31
2016-01-30 03:05:00,41.1,37.0682243812893,41.1,79,35.0927180719467,6,19,315,0,0,29.341,0,0,0,73.5,31
2016-01-30 03:10:00,41,36.9491313845374,41,80,35.3116954391893,6,13,247.5,0,0,29.338,0,0,0,73.5,31
2016-01-30 03:15:00,40.9,37.5295077929464,40.9,80,35.2142823718332,5,15,225,0,0,29.331,0,0,0,73.3,31
2016-01-30 03:20:00,40.8,38.2427643107093,40.8,80,35.116868723782,4,11,225,0,0,29.327,0,0,0,73.3,31
2016-01-30 03:25:00,40.7,38.1272481797438,40.7,80,35.0194544950307,4,8,247.5,0,0,29.331,0,0,0,73.3,31
2016-01-30 03:30:00,40.6,40.6,40.6,80,34.922039685574,3,11,247.5,0,0,29.327,0,0,0,73.3,31
2016-01-30 03:35:00,40.5,40.5,40.5,80,34.8246242954067,2,7,202.5,0,0,29.333,0,0,0,73.3,31
2016-01-30 03:40:00,40.5,40.5,40.5,81,35.1366921135963,3,10,202.5,0,0,29.331,0,0,0,73.3,31
2016-01-30 03:45:00,40.4,40.4,40.4,80,34.7272083245237,2,8,225,0,0,29.329,0,0,0,73.3,31
2016-01-30 03:50:00,40.3,37.6651836558816,40.3,80,34.6297917729197,4,12,225,0,0,29.329,0,0,0,73.3,31
2016-01-30 03:55:00,40.2,40.2,40.2,80,34.5323746405896,3,9,202.5,0,0,29.329,0,0,0,73.3,32
2016-01-30 04:00:00,40.2,40.2,40.2,80,34.5323746405896,3,8,202.5,0,0,29.33,0,0.001,0,73.3,31
2016-01-30 04:05:00,40.1,36.5898607399462,40.1,80,34.4349569275281,5,9,202.5,0,0,29.326,0,0,0,73.3,31
2016-01-30 04:10:00,40.1,35.8772944137706,40.1,80,34.4349569275281,6,11,202.5,0,0,29.326,0,0,0,73.5,32
2016-01-30 04:15:00,40.1,35.8772944137706,40.1,80,34.4349569275281,6,12,202.5,0,0,29.325,0,0,0,73.5,32
2016-01-30 04:20:00,40.2,35.9963874105224,40.2,80,34.5323746405896,6,15,202.5,0,0,29.322,0,0,0,73.5,32
2016-01-30 04:25:00,40.2,35.9963874105224,40.2,80,34.5323746405896,6,19,225,0,0,29.325,0,0,0,73.5,31
2016-01-30 04:30:00,40.2,36.7073166215712,40.2,80,34.5323746405896,5,13,202.5,0,0,29.324,0,0,0,73.5,31
2016-01-30 04:35:00,40.3,36.8247725031962,40.3,80,34.6297917729197,5,11,270,0,0,29.322,0,0,0,73.5,31
2016-01-30 04:40:00,40.3,36.1154804072743,40.3,80,34.6297917729197,6,11,225,0,0,29.319,0,0,0,73.5,31
2016-01-30 04:45:00,40.3,36.8247725031962,40.3,81,34.9415772071464,5,12,202.5,0,0,29.32,0,0,0,73.5,31
2016-01-30 04:50:00,40.3,36.1154804072743,40.3,82,35.2499806215139,6,14,225,0,0,29.32,0,0,0,73.3,31
2016-01-30 04:55:00,40.3,36.1154804072743,40.3,82,35.2499806215139,6,16,225,0,0,29.314,0,0,0,73.3,31
2016-01-30 05:00:00,40.3,36.1154804072743,40.3,82,35.2499806215139,6,19,225,0,0,29.318,0,0.001,0,73.3,31
2016-01-30 05:05:00,40.3,35.4994269544316,40.3,83,35.5550795926271,7,14,247.5,0,0,29.318,0,0,0,73.3,31
2016-01-30 05:10:00,40.3,35.4994269544316,40.3,83,35.5550795926271,7,21,225,0,0,29.315,0,0,0,73.3,31
2016-01-30 05:15:00,40.2,35.3789120464074,40.2,82,35.1522826291739,7,24,292.5,0,0,29.322,0,0,0,73.3,31
2016-01-30 05:20:00,40.1,35.2583971383831,40.1,82,35.0545841181302,7,20,247.5,0,0,29.324,0,0,0,73.3,31
2016-01-30 05:25:00,40.1,34.2160890694529,40.1,81,34.7464601023396,9,23,270,0,0,29.325,0,0,0,73.1,31
2016-01-30 05:30:00,39.9,32.360241285071,39.9,79,33.9254421531251,13,26,247.5,0.00393700787,0,29.33,0,0,0,73.1,31
2016-01-30 05:35:00,39.9,34.4662553308285,39.9,77,33.2853812379459,8,19,225,0,0,29.326,0,0,0,73.1,31
2016-01-30 05:40:00,39.8,33.8473602633777,39.8,75,32.5337623127052,9,21,247.5,0,0,29.321,0,0,0,73,31
2016-01-30 05:45:00,39.8,34.344480039092,39.8,75,32.5337623127052,8,22,225,0,0,29.324,0,0,0,73,30
2016-01-30 05:50:00,39.9,35.0173673223346,39.9,74,32.2971806574189,7,24,225,0,0,29.321,0,0,0,73,30
2016-01-30 05:55:00,40,34.588030622565,40,73,32.0562900088247,8,16,225,0,0,29.321,0,0,0,72.8,30
2016-01-30 06:00:00,40,35.1378822303589,40,73,32.0562900088247,7,20,247.5,0,0,29.32,0,0.001,0,72.8,30
2016-01-30 06:05:00,40.1,35.2583971383831,40.1,73,32.1526777480926,7,16,270,0,0,29.327,0,0,0,72.8,30
2016-01-30 06:10:00,40.1,34.7098059143014,40.1,72,31.8109806661016,8,21,270,0,0,29.329,0,0,0,72.6,30
2016-01-30 06:15:00,40.2,34.8315812060379,40.2,72,31.9072137454848,8,19,270,0,0,29.327,0,0,0,72.6,30
2016-01-30 06:20:00,40.2,34.338998671478,40.2,71,31.5611385243724,9,22,270,0,0,29.328,0,0,0,72.4,30
2016-01-30 06:25:00,40.1,34.2160890694529,40.1,69,30.7600967319489,9,21,270,0,0,29.333,0,0,0,72.4,29
2016-01-30 06:30:00,40.2,33.8904333759872,40.2,68,30.496410544573,10,20,270,0,0,29.338,0,0,0,72.3,29
2016-01-30 06:35:00,40.2,34.8315812060379,40.2,68,30.496410544573,8,26,247.5,0,0,29.343,0,0,0,72.1,29
2016-01-30 06:40:00,40.2,35.9963874105224,40.2,67,30.1322569102912,6,15,292.5,0,0,29.34,0,0,0,72.1,29
2016-01-30 06:45:00,40.2,36.7073166215712,40.2,68,30.496410544573,5,14,225,0,0,29.34,0,0,0,71.9,28
2016-01-30 06:50:00,40.1,35.8772944137706,40.1,68,30.4008111130195,6,14,247.5,0,0,29.342,0,0,0,71.9,28
2016-01-30 06:55:00,40,36.4724048583212,40,67,29.9413834687834,5,13,292.5,0,0,29.346,0,0,0,71.8,28
2016-01-30 07:00:00,40,36.4724048583212,40,67,29.9413834687834,5,12,247.5,0,0,29.344,0,0.002,0,71.6,28
2016-01-30 07:05:00,39.9,35.0173673223346,39.9,67,29.8459452320851,7,22,225,0,0,29.347,0,0,0,71.6,28
2016-01-30 07:10:00,39.9,35.0173673223346,39.9,67,29.8459452320851,7,22,225,0,0,29.345,0,0,0,71.4,28
2016-01-30 07:15:00,39.9,37.2031191320194,39.9,67,29.8459452320851,4,8,225,0,0,29.343,0,0,0,71.4,28
2016-01-30 07:20:00,39.9,35.6391084202668,39.9,67,29.8459452320851,6,14,202.5,0,0,29.343,0,0,0,71.2,28
2016-01-30 07:25:00,39.9,35.6391084202668,39.9,67,29.8459452320851,6,13,225,0,0,29.343,0,0,0,71.2,28
2016-01-30 07:30:00,39.8,34.8968524143104,39.8,67,29.7505059847358,7,15,225,0,0,29.346,0,0,0,71.2,28
2016-01-30 07:35:00,39.8,37.0876030010538,39.8,68,30.1140069639194,4,12,202.5,0,0,29.347,0,0,0,71.1,28
2016-01-30 07:40:00,39.8,36.2374930950711,39.8,68,30.1140069639194,5,12,202.5,0,0,29.349,0,0,0,71.1,28
2016-01-30 07:45:00,39.7,36.1200372134461,39.7,68,30.0184036293563,5,13,225,0,0,29.351,0,0,0,70.9,28
2016-01-30 07:50:00,39.7,33.7244506613526,39.7,68,30.0184036293563,9,22,247.5,0,0,29.347,0,0,0,70.9,28
2016-01-30 07:55:00,39.7,34.7763375062861,39.7,68,30.0184036293563,7,20,225,0,0,29.35,0,0,0,70.9,27
2016-01-30 08:00:00,39.7,34.7763375062861,39.7,68,30.0184036293563,7,20,247.5,0,0,29.353,0,0.001,0,70.7,28
2016-01-30 08:05:00,39.8,34.344480039092,39.8,68,30.1140069639194,8,24,247.5,0,0,29.346,0,0,0,70.7,28
2016-01-30 08:10:00,39.8,34.344480039092,39.8,68,30.1140069639194,8,20,292.5,0,0,29.355,0,0,0,70.6,27
2016-01-30 08:15:00,39.8,34.344480039092,39.8,69,30.4728090605265,8,18,270,0,0,29.361,3,0,0,70.6,27
2016-01-30 08:20:00,39.8,35.5200154235149,39.8,69,30.4728090605265,6,18,292.5,0,0,29.362,7,0,0,70.6,27
2016-01-30 08:25:00,39.9,35.6391084202668,39.9,69,30.5685725588612,6,20,225,0,0,29.364,11,0,0,70.6,27
2016-01-30 08:30:00,39.9,35.6391084202668,39.9,69,30.5685725588612,6,19,247.5,0,0,29.365,14,0,0,70.4,27
2016-01-30 08:35:00,39.9,34.4662553308285,39.9,69,30.5685725588612,8,16,225,0,0,29.368,16,0,0,70.4,28
2016-01-30 08:40:00,39.9,35.0173673223346,39.9,69,30.5685725588612,7,20,247.5,0,0,29.37,16,0,0,70.4,28
2016-01-30 08:45:00,40,35.7582014170187,40,69,30.6643351159974,6,15,270,0,0,29.37,16,0,0,70.4,28
2016-01-30 08:50:00,39.9,35.0173673223346,39.9,69,30.5685725588612,7,14,270,0,0,29.368,17,0,0,70.4,27
2016-01-30 08:55:00,39.9,35.0173673223346,39.9,69,30.5685725588612,7,18,247.5,0,0,29.367,19,0,0,70.4,27
2016-01-30 09:00:00,39.9,34.4662553308285,39.9,69,30.5685725588612,8,16,225,0,0,29.366,21,0.001,0,70.4,27
2016-01-30 09:05:00,39.8,33.8473602633777,39.8,68,30.1140069639194,9,18,247.5,0,0,29.368,29,0,0,70.4,27
2016-01-30 09:10:00,39.9,35.0173673223346,39.9,67,29.8459452320851,7,16,202.5,0,0,29.369,52,0,0.1,70.4,27
2016-01-30 09:15:00,40,34.0931794674278,40,67,29.9413834687834,9,20,247.5,0,0,29.369,52,0,0.1,70.4,27
2016-01-30 09:20:00,40,34.0931794674278,40,67,29.9413834687834,9,20,247.5,0,0,29.371,36,0,0,70.4,27
2016-01-30 09:25:00,39.9,36.3549489766961,39.9,67,29.8459452320851,5,15,225,0,0,29.37,31,0,0,70.4,27
2016-01-30 09:30:00,39.9,34.4662553308285,39.9,67,29.8459452320851,8,22,225,0,0,29.372,35,0,0,70.4,27
2016-01-30 09:35:00,39.9,35.0173673223346,39.9,67,29.8459452320851,7,16,247.5,0,0,29.372,36,0,0,70.4,27
2016-01-30 09:40:00,40,35.1378822303589,40,66,29.5727196896778,7,18,225,0,0,29.371,43,0,0,70.4,27
2016-01-30 09:45:00,40.1,35.2583971383831,40.1,66,29.6679917074796,7,21,225,0,0,29.368,72,0,0.5,70.4,27
2016-01-30 09:50:00,40.2,35.3789120464074,40.2,66,29.7632626794358,7,18,270,0,0,29.37,80,0,0.6,70.4,27
2016-01-30 09:55:00,40.3,34.461908273503,40.3,67,30.2276921151327,9,22,247.5,0,0,29.371,69,0,0.6,70.4,27
2016-01-30 10:00:00,40,33.6425482755885,40,68,30.305210705736,10,24,247.5,0,0,29.369,73,0.002,0.5,70.4,27
2016-01-30 10:05:00,39.8,34.344480039092,39.8,70,30.8270403106426,8,22,270,0,0,29.368,55,0,0.3,70.4,27
2016-01-30 10:10:00,39.6,35.2818294300112,39.6,70,30.6351921532536,6,13,225,0,0,29.359,53,0,0,70.4,27
2016-01-30 10:15:00,39.6,34.100929455619,39.6,70,30.6351921532536,8,20,247.5,0,0,29.36,73,0,0.5,70.4,27
2016-01-30 10:20:00,40.1,36.5898607399462,40.1,69,30.7600967319489,5,13,202.5,0,0,29.358,116,0,0.7,70.4,27
2016-01-30 10:25:00,40.8,35.0764562836283,40.8,67,30.7048529808591,9,25,225,0,0,29.353,171,0,0.8,70.4,27
2016-01-30 10:30:00,41.6,37.0661207587468,41.6,66,31.0969464826671,7,21,225,0,0,29.352,223,0,0.9,70.6,27
2016-01-30 10:35:00,41.9,35.601256276736,41.9,64,30.6238972221635,11,25,247.5,0,0,29.354,204,0,0.9,70.6,27
2016-01-30 10:40:00,42.1,36.2453418297756,42.1,63,30.4260755871594,10,25,270,0,0,29.352,207,0,0.9,70.6,27
2016-01-30 10:45:00,42,35.7261483620141,42,63,30.3313350063659,11,29,270,0,0,29.356,131,0,0.8,70.6,27
2016-01-30 10:50:00,41.7,35.3514721061798,41.7,65,30.8157130221908,11,22,270,0,0,29.362,65,0,0.4,70.6,27
2016-01-30 10:55:00,40.5,34.7077274775531,40.5,71,31.8493656350479,9,21,270,0,0,29.359,229,0,0.9,70.6,27
2016-01-30 11:00:00,40,34.588030622565,40,73,32.0562900088247,8,18,292.5,0,0,29.371,58,0.004,0.2,70.6,27
2016-01-30 11:05:00,39.3,32.7749504241927,39.3,76,32.378768994127,10,22,247.5,0,0,29.364,61,0,0.6,70.6,27
2016-01-30 11:10:00,39.1,35.4153019236959,39.1,78,32.8301427942388,5,14,202.5,0,0,29.359,240,0,0.8,70.6,27
2016-01-30 11:15:00,39,31.9793858036709,39,78,32.7330046517679,11,26,225,0,0,29.36,53,0,0.4,70.6,27
2016-01-30 11:20:00,39.4,33.3557218552774,39.4,77,32.8004370825752,9,26,270,0,0,29.361,190,0,0.9,70.6,27
2016-01-30 11:25:00,39.4,33.3557218552774,39.4,76,32.4756129319982,9,19,225,0,0,29.362,77,0,0.7,70.6,27
2016-01-30 11:30:00,39.2,33.6138282886731,39.2,77,32.6064546903257,8,23,247.5,0,0,29.359,116,0,0.9,70.6,27
2016-01-30 11:35:00,39.8,36.2374930950711,39.8,77,33.188393758301,5,16,292.5,0,0,29.355,290,0,1.1,70.6,27
2016-01-30 11:40:00,40.7,37.2945960296964,40.7,74,33.0694838245334,5,16,315,0,0,29.354,263,0,1.1,70.6,27
2016-01-30 11:45:00,41.1,36.4635462186256,41.1,72,32.7732736889921,7,21,180,0,0,29.346,145,0,0.9,70.6,27
2016-01-30 11:50:00,41,36.3430313106013,41,70,31.9780530729323,7,16,247.5,0,0,29.346,168,0,0.9,70.6,27
2016-01-30 11:55:00,41.6,37.0661207587468,41.6,69,32.1964080385027,7,18,270,0,0,29.34,292,0,1.2,70.6,27
2016-01-30 12:00:00,42,36.5513715079291,42,67,31.8499359907524,9,25,225,0,0,29.341,294,0.004,1.2,70.6,27
2016-01-30 12:05:00,42.4,38.0302400229407,42.4,66,31.8589594983621,7,24,270,0,0,29.339,300,0,1.2,70.6,27
2016-01-30 12:10:00,42.7,37.4117387221046,42.7,66,32.1446971288543,9,19,225,0,0,29.346,381,0,1.2,70.6,27
2016-01-30 12:15:00,42.4,36.6171694803738,42.4,67,32.2315979959666,10,26,225,0,0,29.358,322,0,1.1,70.7,27
2016-01-30 12:20:00,42.7,38.3917847470135,42.7,69,33.2495684363385,7,18,225,0,0,29.351,454,0,1.3,70.9,27
2016-01-30 12:25:00,42.9,38.632814563062,42.9,69,33.441039913964,7,22,315,0,0,29.353,297,0,1.1,71.1,27
2016-01-30 12:30:00,42.5,38.7355263358155,42.5,68,32.6949282031808,6,16,270,0,0,29.353,80,0,0.7,71.1,27
2016-01-30 12:35:00,42.1,35.4857831920116,42.1,67,31.9453530074868,12,32,270,0,0,29.364,62,0,0.2,71.1,27
2016-01-30 12:40:00,41.6,35.6256290787787,41.6,70,32.5535104845359,10,28,247.5,0,0,29.373,275,0,1,71.1,27
2016-01-30 12:45:00,41.7,36.1826427018539,41.7,70,32.6494168794698,9,24,247.5,0,0,29.365,328,0,1.2,71.1,27
2016-01-30 12:50:00,42,38.1400613520562,42,69,32.5793886284036,6,16,225,0,0,29.365,311,0,1.2,71.1,27
2016-01-30 12:55:00,42.3,37.9097251149165,42.3,69,32.8666141912556,7,18,247.5,0,0,29.369,319,0,1.2,71.1,27
2016-01-30 13:00:00,42.4,36.6171694803738,42.4,67,32.2315979959666,10,19,247.5,0,0,29.374,224,0.006,1.1,71.2,27
2016-01-30 13:05:00,42.7,37.8759634994499,42.7,66,32.1446971288543,8,26,202.5,0,0,29.373,405,0,1.2,71.4,27
2016-01-30 13:10:00,43.1,39.4500843163268,43.1,66,32.5256660006846,6,22,247.5,0,0,29.365,445,0,1.2,71.4,27
2016-01-30 13:15:00,43.8,39.7174487352802,43.8,65,32.8122992393791,7,22,225,0,0,29.365,419,0,1.2,71.6,27
2016-01-30 13:20:00,43.9,39.8379636433044,43.9,64,32.5219663004242,7,19,225,0,0,29.365,322,0,1.1,71.8,27
2016-01-30 13:25:00,43.4,38.7283905416053,43.4,62,31.2621939289382,8,21,270,0,0,29.362,329,0,1.1,71.9,27
2016-01-30 13:30:00,43.5,39.3559040112074,43.5,63,31.7523226399682,7,16,270,0,0,29.364,306,0,1.1,71.9,26
2016-01-30 13:35:00,43.2,38.4848399581323,43.2,63,31.4681458681384,8,23,225,0,0,29.367,292,0,1,72.1,26
2016-01-30 13:40:00,43.2,40.2309930703221,43.2,63,31.4681458681384,5,16,292.5,0,0,29.365,83,0,0.8,72.1,26
2016-01-30 13:45:00,42.9,38.1195140829228,42.9,64,31.5729876010276,8,23,225,0,0,29.369,44,0,0.2,71.9,26
2016-01-30 13:50:00,41.5,34.7311531247666,41.5,67,31.3728357520496,12,31,247.5,0,0,29.373,42,0,0,71.8,26
2016-01-30 13:55:00,39.4,32.0899478894093,39.4,73,31.4779466449956,12,27,270,0,0,29.369,62,0,0,71.6,26
2016-01-30 14:00:00,38.5,32.2495354370518,38.5,77,31.927495030958,9,19,247.5,0.00393700787,0,29.368,38,0.005,0,71.6,26
2016-01-30 14:05:00,38.1,30.855357036168,38.1,79,32.1743629943681,11,19,270,0.00393700787,0.02362204722,29.377,15,0,0,71.4,27
2016-01-30 14:10:00,37.9,31.0397547214013,37.9,80,32.291620304635,10,23,270,0,0.02362204722,29.385,15,0,0,71.2,27
2016-01-30 14:15:00,37,28.3306924763922,37,80,31.4147197515419,14,25,292.5,0,0.02362204722,29.391,9,0,0,71.2,27
2016-01-30 14:20:00,35.9,29.0538857844002,35.9,82,30.9507782101708,9,23,315,0,0.01574803148,29.392,10,0,0,71.1,27
2016-01-30 14:25:00,35.1,28.6210413274774,35.1,83,30.4669443118587,8,16,315,0,0,29.385,26,0,0,70.9,27
2016-01-30 14:30:00,35.1,28.6210413274774,35.1,85,31.0534332225364,8,20,315,0,0,29.382,164,0,0.7,70.7,27
2016-01-30 14:35:00,35.8,30.75629555344,35.8,86,32.0299498652866,6,14,270,0.00393700787,0,29.381,231,0,1.1,70.7,28
2016-01-30 14:40:00,36.5,36.5,36.5,86,32.7177661411318,3,9,292.5,0.00393700787,0.0393700787,29.378,185,0,1.1,70.7,28
2016-01-30 14:45:00,37.1,37.1,37.1,85,33.0159654056441,3,8,247.5,0,0.03149606296,29.381,180,0,0.9,70.7,28
2016-01-30 14:50:00,37.6,37.6,37.6,85,33.5065717283764,2,7,180,0.00393700787,0.03149606296,29.372,185,0,1,70.7,28
2016-01-30 14:55:00,37.8,37.8,37.8,83,33.1090254568839,3,10,292.5,0,0.02362204722,29.375,53,0,0.5,70.7,28
2016-01-30 15:00:00,38,34.1232872258206,38,83,33.3047210142869,5,18,225,0,0.01574803148,29.372,24,0.002,0,70.6,28
2016-01-30 15:05:00,38.4,33.8527134689887,38.4,82,33.3936300647241,6,15,202.5,0,0,29.372,25,0,0,70.6,28
2016-01-30 15:10:00,38.8,32.618264243127,38.8,80,33.1684738088139,9,21,202.5,0,0,29.373,21,0,0,70.4,28
2016-01-30 15:15:00,38.8,32.618264243127,38.8,79,32.8553617922577,9,24,225,0,0,29.38,9,0,0,70.4,28
2016-01-30 15:20:00,38.4,31.6594674723982,38.4,79,32.4662232953748,10,23,225,0.00393700787,0,29.39,0,0,0,70.2,28
2016-01-30 15:25:00,37.8,31.9089742043624,37.8,80,32.1941892333193,8,19,270,0,0,29.399,0,0,0,70.2,28
2016-01-30 15:30:00,36.8,32.7138166463203,36.8,81,31.5267104521709,5,21,202.5,0.00393700787,0.02362204722,29.389,9,0,0,70.1,28
2016-01-30 15:35:00,36.4,30.2041201200517,36.4,82,31.439374523082,8,20,270,0,0.02362204722,29.383,10,0,0,70.1,28
2016-01-30 15:40:00,36.4,30.2041201200517,36.4,82,31.439374523082,8,19,225,0,0.01574803148,29.381,18,0,0,69.9,28
2016-01-30 15:45:00,36.7,31.8281325242068,36.7,82,31.7325260844675,6,13,225,0,0,29.384,17,0,0,69.9,28
2016-01-30 15:50:00,36.9,31.4019200816073,36.9,81,31.6242874185745,7,15,270,0,0,29.387,3,0,0,69.7,28
2016-01-30 15:55:00,36.8,30.6912212869976,36.8,82,31.830242233894,8,24,225,0.00393700787,0,29.382,4,0,0,69.7,28
2016-01-30 16:00:00,36.5,30.9198604495103,36.5,83,31.8369567384705,7,18,247.5,0,0,29.38,11,0.001,0,69.6,28
2016-01-30 16:05:00,36.2,30.5583157254376,36.2,84,31.8396701796549,7,18,247.5,0,0,29.38,11,0,0,69.6,29
2016-01-30 16:10:00,36.3,31.3517605371993,36.3,85,32.2309730562805,6,14,270,0,0,29.379,11,0,0,69.6,29
2016-01-30 16:15:00,36.5,33.2755706791909,36.5,85,32.4272237090281,4,11,292.5,0,0,29.382,11,0,0,69.6,29
2016-01-30 16:20:00,36.7,31.8281325242068,36.7,85,32.6234726514896,6,12,225,0,0,29.385,11,0,0,69.4,29
2016-01-30 16:25:00,36.8,31.9472255209587,36.8,84,32.4276127030821,6,14,225,0,0,29.383,8,0,0,69.4,29
2016-01-30 16:30:00,36.9,32.8312725279453,36.9,84,32.5256015214937,5,16,202.5,0,0,29.379,6,0,0,69.4,29
2016-01-30 16:35:00,37,32.1854115144625,37,84,32.6235898821539,6,18,202.5,0,0,29.378,2,0,0,69.4,29
2016-01-30 16:40:00,37.2,33.1836401728204,37.2,84,32.8195652302333,5,12,270,0,0,29.388,0,0,0,69.4,29
2016-01-30 16:45:00,37.4,32.6617835014699,37.4,83,32.717628484327,6,12,225,0,0,29.387,0,0,0,69.4,29
2016-01-30 16:50:00,37.6,32.8999694949737,37.6,83,32.913327946907,6,16,225,0,0,29.392,0,0,0,69.2,29
2016-01-30 16:55:00,37.9,34.8927965127085,37.9,82,32.9050856347809,4,8,292.5,0,0,29.392,0,0,0,69.2,29
2016-01-30 17:00:00,38.1,34.2407431074456,38.1,82,33.1005049631253,5,13,225,0,0,29.391,0,0.001,0,69.2,29
2016-01-30 17:05:00,38.2,35.2393449056051,38.2,82,33.1982138491098,4,11,202.5,0,0,29.387,0,0,0,69.2,29
2016-01-30 17:10:00,38.1,35.1238287746396,38.1,82,33.1005049631253,4,11,225,0,0,29.385,0,0,0,69.2,29
2016-01-30 17:15:00,38.1,35.1238287746396,38.1,81,32.7951681364685,4,11,270,0,0,29.381,0,0,0,69.2,29
2016-01-30 17:20:00,38.2,33.6145274754849,38.2,80,32.5839100334981,6,18,225,0,0,29.376,0,0,0,69.2,29
2016-01-30 17:25:00,38.3,33.7336204722368,38.3,79,32.3689371406055,6,16,202.5,0,0,29.373,0,0,0,69,29
2016-01-30 17:30:00,38.4,33.8527134689887,38.4,78,32.1501622759624,6,12,270,0,0,29.368,0,0,0,69,29
2016-01-30 17:35:00,38.5,33.3301586099952,38.5,77,31.927495030958,7,14,225,0,0,29.372,0,0,0,69,29
2016-01-30 17:40:00,38.7,33.0049518299907,38.7,75,31.4701046392987,8,18,247.5,0,0,29.379,0,0,0,69,29
2016-01-30 17:45:00,38.8,33.6917033340679,38.8,74,31.2351830153187,7,18,225,0,0,29.375,0,0,0,69.2,29
2016-01-30 17:50:00,38.9,34.4481784527481,38.9,74,31.3317321212102,6,16,225,0,0,29.379,0,0,0,69.2,29
2016-01-30 17:55:00,38.9,33.8122182420922,38.9,73,30.9959716727833,7,18,225,0,0,29.378,0,0,0,69.2,29
2016-01-30 18:00:00,38.9,34.4481784527481,38.9,74,31.3317321212102,6,16,225,0,0,29.376,0,0.001,0,69.4,29
2016-01-30 18:05:00,38.8,33.6917033340679,38.8,75,31.5668044934575,7,21,202.5,0,0,29.377,0,0,0,69.4,29
2016-01-30 18:10:00,38.6,34.8280225155708,38.6,75,31.3734040446997,5,13,247.5,0,0,29.384,0,0,0,69.4,29
2016-01-30 18:15:00,38.2,32.9686138859225,38.2,77,31.6365021829509,7,14,225,0,0,29.379,0,0,0,69.4,29
2016-01-30 18:20:00,37.9,32.6070691618497,37.9,77,31.3455032525587,7,20,225,0,0,29.381,0,0,0,69.4,29
2016-01-30 18:25:00,37.8,31.3891682228764,37.8,78,31.5672967203354,9,19,225,0,0,29.381,0,0,0,69.6,29
2016-01-30 18:30:00,37.7,31.7871989126259,37.7,78,31.4701502073734,8,24,225,0,0,29.378,0,0,0,69.6,29
2016-01-30 18:35:00,37.7,32.3660393458013,37.7,78,31.4701502073734,7,16,247.5,0,0,29.379,0,0,0,69.6,29
2016-01-30 18:40:00,37.8,31.3891682228764,37.8,77,31.2485022574205,9,19,247.5,0,0,29.384,0,0,0,69.7,29
2016-01-30 18:45:00,38,31.6349874269265,38,77,31.4425035718551,9,27,247.5,0,0,29.377,0,0,0,69.7,29
2016-01-30 18:50:00,38.2,31.8808066309766,38.2,76,31.3134389525512,9,18,225,0,0,29.383,0,0,0,69.7,29
2016-01-30 18:55:00,38.3,32.0037162330017,38.3,76,31.4102906780635,9,21,225,0,0,29.38,0,0,0,69.7,29
2016-01-30 19:00:00,38.3,32.5178506630448,38.3,76,31.4102906780635,8,18,180,0,0,29.385,0,0.001,0,69.7,28
2016-01-30 19:05:00,38.3,32.5178506630448,38.3,75,31.0832978181764,8,20,225,0,0,29.384,0,0,0,69.7,28
2016-01-30 19:10:00,38.4,32.6396259547813,38.4,75,31.180000634147,8,20,225,0,0,29.386,0,0,0,69.7,28